Regional Weather Roundup
Issued by NWS Albany, NY

Home | Current Version | Previous Version | Text Only | Print | Product List | Glossary On
Versions: 1 2 3 4 5 6 7 8 9 10 11 12 13 14 15 16 17 18 19 20 21 22 23 24 25 26 27 28 29 30 31 32 33 34 35 36 37 38 39 40 41 42 43 44 45 46 47 48 49 50
000
ASUS41 KALY 051110
RWRALY

NEW YORK STATE HOURLY WEATHER ROUNDUP
NATIONAL WEATHER SERVICE ALBANY NY
600 AM EST THU MAR 05 2015

NOTE: "FAIR" INDICATES FEW OR NO CLOUDS BELOW 12,000 FEET WITH NO
SIGNIFICANT WEATHER AND/OR NO OBSTRUCTIONS TO VISIBILITY.

NYZ032-033-038>043-046>054-057>066-NYZ062>081-051200-
EAST


CITY           SKY/WX    TMP DP  RH WIND       PRES   REMARKS
ALBANY         CLOUDY    25   8  48 NW17      30.07R WCI  12
GLENS FALLS    CLOUDY    25   4  40 NW10      30.06R WCI  15
POUGHKEEPSIE   CLOUDY    30  21  69 NE10      30.02R WCI  21
NEWBURGH       CLOUDY    34  25  69 E16       30.00R WCI  23
MONTGOMERY     CLOUDY    34  21  59 N17G23    29.98R WCI  23
WHITE PLAINS   LGT SNOW  32  29  88 NW9       29.96R VSB 1   WCI  24
ISLIP          LGT SNOW  33  30  88 N9        29.97R VSB 1   WCI  25
NEW YORK CITY  LGT SNOW  33  30  88 N9        29.99F FOG     WCI  25
CENTRAL PARK   LGT SNOW  32  29  88 VRB3      30.02S FOG
$$

NYZ005>009-017-018-044>046-055-056-051200-
CENTRAL


CITY           SKY/WX    TMP DP  RH WIND       PRES   REMARKS
FULTON         CLOUDY    16   4  59 NW18      30.18R WCI   0
SYRACUSE       CLOUDY    13   4  67 W15       30.17R WCI  -3
ROME           CLOUDY    16   2  54 NW17      30.16R WCI   0
ELMIRA         CLOUDY    16   6  65 N10G20    30.16R WCI   4
BINGHAMTON     CLOUDY    13   4  67 N18G25    30.06R WCI  -4
MONTICELLO     CLOUDY    25  16  68 NW14G23   29.98R WCI  13
$$

NYZ026>034-041>043-051200-
NORTH


CITY           SKY/WX    TMP DP  RH WIND       PRES   REMARKS
WATERTOWN      CLOUDY    15   1  53 W9        30.18R WCI   3
FORT DRUM      NOT AVBL
MASSENA        MOCLDY    12  -1  56 NW9       30.16R WCI   0
SARANAC LAKE   CLOUDY    10   1  67 NW7       29.96R WCI  -1
PLATTSBURGH    CLOUDY    17   7  64 NW10      30.08R WCI   5
$$

NYZ001>004-010>016-019>021-051200-
WEST


CITY           SKY/WX    TMP DP  RH WIND       PRES   REMARKS
NIAGARA FALLS  CLOUDY    10  -2  58 NW15      30.25R WCI  -7
BUFFALO        CLOUDY    11  -2  56 NW10      30.23R WCI  -3
DUNKIRK        CLOUDY    11   0  61 N12       30.28R WCI  -3
JAMESTOWN      CLOUDY     9  -2  61 N9        30.14R WCI  -5
WELLSVILLE     CLOUDY    10   3  73 N12       30.07R WCI  -5
ROCHESTER      CLOUDY    14   1  56 NW13      30.21F WCI   0
PENN YAN       CLOUDY    13   1  59 NW7       30.16S WCI   3
$$

             KEY
       WCI = WIND CHILL INDEX
       VSB = VISIBILITY
       HX  = HEAT INDEX
$$


USA.gov is the U.S. government's official web portal to all federal, state and local government web resources and services.